This is the latest recevied weather packets stored in our database for station/object N7AWM. If no packets are shown the sender has not sent any weather packets the latest 10 day(s).
| Time | Temp. | Humidity | Pressure | Rain* | Wind** | Luminosity | Snow |
|---|---|---|---|---|---|---|---|
| 1777429008 | 14.44° C | 51% | 1015.3 hPa | 0 mm | - | - | - |
| 1777428168 | 14.44° C | 51% | 1015.2 hPa | 0 mm | - | - | - |
| 1777427328 | 15° C | 49% | 1015.2 hPa | 0 mm | - | - | - |
| 1777426488 | 15° C | 48% | 1015.1 hPa | 0 mm | - | - | - |
| 1777425648 | 15° C | 49% | 1015.1 hPa | 0 mm | - | - | - |
| 1777424808 | 15.56° C | 49% | 1015 hPa | 0 mm | - | - | - |
| 1777423968 | 15.56° C | 49% | 1014.9 hPa | 0 mm | - | - | - |
| 1777423128 | 15.56° C | 47% | 1014.9 hPa | 0 mm | - | - | - |
| 1777422288 | 16.11° C | 47% | 1014.9 hPa | 0 mm | - | - | - |
| 1777421448 | 16.67° C | 46% | 1014.9 hPa | 0 mm | - | - | - |
| 1777420608 | 17.22° C | 44% | 1014.8 hPa | 0 mm | - | - | - |
| 1777419769 | 17.22° C | 45% | 1014.9 hPa | 0 mm | - | - | - |
| 1777418928 | 17.22° C | 41% | 1014.9 hPa | 0 mm | - | - | - |
| 1777418089 | 16.67° C | 41% | 1014.8 hPa | 0 mm | - | - | - |
| 1777417249 | 16.67° C | 41% | 1015 hPa | 0 mm | - | - | - |
| 1777416409 | 17.22° C | 41% | 1015.2 hPa | 0 mm | - | - | - |
| 1777415569 | 16.67° C | 42% | 1015.3 hPa | 0 mm | - | - | - |
| 1777414729 | 16.67° C | 43% | 1015.3 hPa | 0 mm | - | - | - |
| 1777413889 | 16.67° C | 40% | 1015.5 hPa | 0 mm | - | - | - |
| 1777413049 | 16.11° C | 43% | 1015.6 hPa | 0 mm | - | - | - |
| 1777412209 | 16.11° C | 41% | 1015.7 hPa | 0 mm | - | - | - |
| 1777411369 | 16.11° C | 44% | 1015.7 hPa | 0 mm | - | - | - |
| 1777410529 | 16.67° C | 41% | 1015.7 hPa | 0 mm | - | - | - |
| 1777409689 | 16.11° C | 42% | 1015.8 hPa | 0 mm | - | - | - |
| 1777408849 | 15.56° C | 43% | 1015.7 hPa | 0 mm | - | - | - |
* Rain latest hour (hover to see other rain measurements)
** Current wind speed in m/s (hover to see current wind gust speed)